Time,TemperatureF,DewpointF,PressureIn,WindDirection,WindDirectionDegrees,WindSpeedMPH,WindSpeedGustMPH,Humidity,HourlyPrecipIn,Conditions,Clouds,dailyrainin,SoftwareType,DateUTC
2013-09-18 00:05:00,57.1,52.6,30.32,NE,37,0.0,0.0,85,0.00,,,0.00,Wunderground v.1.15,2013-09-18 04:05:00,
2013-09-18 00:10:00,57.0,52.5,30.32,NE,37,0.0,0.0,85,0.00,,,0.00,Wunderground v.1.15,2013-09-18 04:10:00,
2013-09-18 00:15:00,56.8,52.7,30.33,NE,37,0.0,0.0,86,0.00,,,0.00,Wunderground v.1.15,2013-09-18 04:15:00,
2013-09-18 00:25:00,56.4,52.6,30.33,NE,37,0.0,0.0,87,0.00,,,0.00,Wunderground v.1.15,2013-09-18 04:25:00,
2013-09-18 00:30:00,56.3,52.5,30.32,NE,37,0.0,0.0,87,0.00,,,0.00,Wunderground v.1.15,2013-09-18 04:30:00,
2013-09-18 00:35:00,56.2,52.4,30.32,NE,37,0.0,0.0,87,0.00,,,0.00,Wunderground v.1.15,2013-09-18 04:35:00,
2013-09-18 00:40:00,56.1,52.3,30.32,NE,37,0.0,0.0,87,0.00,,,0.00,Wunderground v.1.15,2013-09-18 04:40:00,
2013-09-18 00:45:00,55.9,52.4,30.32,NE,37,0.0,0.0,88,0.00,,,0.00,Wunderground v.1.15,2013-09-18 04:45:00,
2013-09-18 00:50:00,55.7,52.2,30.32,NE,37,0.0,0.0,88,0.00,,,0.00,Wunderground v.1.15,2013-09-18 04:50:00,
2013-09-18 00:55:00,55.5,52.3,30.32,NE,37,0.0,0.0,89,0.00,,,0.00,Wunderground v.1.15,2013-09-18 04:55:00,
2013-09-18 01:05:00,55.3,52.1,30.32,NE,37,0.0,0.0,89,0.00,,,0.00,Wunderground v.1.15,2013-09-18 05:05:00,
2013-09-18 01:10:00,55.1,52.2,30.32,NE,37,0.0,0.0,90,0.00,,,0.00,Wunderground v.1.15,2013-09-18 05:10:00,
2013-09-18 01:15:00,55.0,52.1,30.32,NE,37,0.0,0.0,90,0.00,,,0.00,Wunderground v.1.15,2013-09-18 05:15:00,
2013-09-18 01:20:00,54.8,51.9,30.32,NE,37,0.0,0.0,90,0.00,,,0.00,Wunderground v.1.15,2013-09-18 05:20:00,
2013-09-18 01:25:00,54.7,51.8,30.32,NE,37,0.0,0.0,90,0.00,,,0.00,Wunderground v.1.15,2013-09-18 05:25:00,
2013-09-18 01:30:00,54.6,51.7,30.32,NE,37,0.0,0.0,90,0.00,,,0.00,Wunderground v.1.15,2013-09-18 05:30:00,
2013-09-18 01:40:00,54.3,51.4,30.32,NE,37,0.0,0.0,90,0.00,,,0.00,Wunderground v.1.15,2013-09-18 05:40:00,
2013-09-18 01:45:00,54.2,51.6,30.31,NE,37,0.0,0.0,91,0.00,,,0.00,Wunderground v.1.15,2013-09-18 05:45:00,
2013-09-18 01:50:00,54.0,51.4,30.31,NE,37,0.0,0.0,91,0.00,,,0.00,Wunderground v.1.15,2013-09-18 05:50:00,
2013-09-18 01:55:00,53.8,51.2,30.31,NE,37,0.0,0.0,91,0.00,,,0.00,Wunderground v.1.15,2013-09-18 05:55:00,
2013-09-18 02:00:00,53.7,51.1,30.32,NE,37,0.0,0.0,91,0.00,,,0.00,Wunderground v.1.15,2013-09-18 06:00:00,
2013-09-18 02:10:00,53.6,51.3,30.32,NE,37,0.0,0.0,92,0.00,,,0.00,Wunderground v.1.15,2013-09-18 06:10:00,
2013-09-18 02:15:00,53.5,51.2,30.31,NE,37,0.0,0.0,92,0.00,,,0.00,Wunderground v.1.15,2013-09-18 06:15:00,
2013-09-18 02:20:00,53.5,51.2,30.31,NE,37,0.0,0.0,92,0.00,,,0.00,Wunderground v.1.15,2013-09-18 06:20:00,
2013-09-18 02:25:00,53.4,51.1,30.31,NE,37,0.0,0.0,92,0.00,,,0.00,Wunderground v.1.15,2013-09-18 06:25:00,
2013-09-18 02:30:00,53.4,51.4,30.31,NE,37,0.0,0.0,93,0.00,,,0.00,Wunderground v.1.15,2013-09-18 06:30:00,
2013-09-18 02:35:00,53.3,51.3,30.31,NE,37,0.0,0.0,93,0.00,,,0.00,Wunderground v.1.15,2013-09-18 06:35:00,
2013-09-18 02:40:00,53.2,51.2,30.31,NE,37,0.0,0.0,93,0.00,,,0.00,Wunderground v.1.15,2013-09-18 06:40:00,
2013-09-18 02:50:00,52.9,50.9,30.31,NE,37,0.0,0.0,93,0.00,,,0.00,Wunderground v.1.15,2013-09-18 06:50:00,
2013-09-18 02:55:00,52.8,50.8,30.30,NE,37,0.0,0.0,93,0.00,,,0.00,Wunderground v.1.15,2013-09-18 06:55:00,
2013-09-18 03:00:00,52.7,50.7,30.30,NE,37,0.0,0.0,93,0.00,,,0.00,Wunderground v.1.15,2013-09-18 07:00:00,
2013-09-18 03:10:00,52.6,50.6,30.30,NE,37,0.0,0.0,93,0.00,,,0.00,Wunderground v.1.15,2013-09-18 07:10:00,
2013-09-18 03:15:00,52.5,50.8,30.30,NE,37,0.0,0.0,94,0.00,,,0.00,Wunderground v.1.15,2013-09-18 07:15:00,
2013-09-18 03:25:00,52.2,50.5,30.30,NE,37,0.0,0.0,94,0.00,,,0.00,Wunderground v.1.15,2013-09-18 07:25:00,
2013-09-18 03:30:00,52.1,50.4,30.30,NE,37,0.0,0.0,94,0.00,,,0.00,Wunderground v.1.15,2013-09-18 07:30:00,
2013-09-18 03:35:00,52.0,50.3,30.30,NE,37,0.0,0.0,94,0.00,,,0.00,Wunderground v.1.15,2013-09-18 07:35:00,
2013-09-18 03:40:00,51.9,50.2,30.30,NE,37,0.0,0.0,94,0.00,,,0.00,Wunderground v.1.15,2013-09-18 07:40:00,
2013-09-18 03:45:00,51.9,50.2,30.30,NE,37,0.0,0.0,94,0.00,,,0.00,Wunderground v.1.15,2013-09-18 07:45:00,
2013-09-18 03:50:00,51.8,50.1,30.30,NE,37,0.0,0.0,94,0.00,,,0.00,Wunderground v.1.15,2013-09-18 07:50:00,
2013-09-18 03:55:00,51.7,50.0,30.30,NE,37,0.0,0.0,94,0.00,,,0.00,Wunderground v.1.15,2013-09-18 07:55:00,
2013-09-18 04:05:00,51.6,49.9,30.30,NE,37,0.0,0.0,94,0.00,,,0.00,Wunderground v.1.15,2013-09-18 08:05:00,
2013-09-18 04:10:00,51.6,50.2,30.30,NE,37,0.0,0.0,95,0.00,,,0.00,Wunderground v.1.15,2013-09-18 08:10:00,
2013-09-18 04:15:00,51.5,50.1,30.30,NE,37,0.0,0.0,95,0.00,,,0.00,Wunderground v.1.15,2013-09-18 08:15:00,
2013-09-18 04:20:00,51.5,50.1,30.29,NE,37,0.0,0.0,95,0.00,,,0.00,Wunderground v.1.15,2013-09-18 08:20:00,
2013-09-18 04:25:00,51.4,50.0,30.29,NE,37,0.0,0.0,95,0.00,,,0.00,Wunderground v.1.15,2013-09-18 08:25:00,
2013-09-18 04:30:00,51.3,49.9,30.29,NE,37,0.0,0.0,95,0.00,,,0.00,Wunderground v.1.15,2013-09-18 08:30:00,
2013-09-18 04:40:00,51.2,49.8,30.29,NE,37,0.0,0.0,95,0.00,,,0.00,Wunderground v.1.15,2013-09-18 08:40:00,
2013-09-18 04:45:00,51.2,49.8,30.29,NE,37,0.0,0.0,95,0.00,,,0.00,Wunderground v.1.15,2013-09-18 08:45:00,
2013-09-18 04:50:00,51.2,49.8,30.29,NE,37,0.0,0.0,95,0.00,,,0.00,Wunderground v.1.15,2013-09-18 08:50:00,
2013-09-18 04:55:00,51.2,49.8,30.29,NE,37,0.0,0.0,95,0.00,,,0.00,Wunderground v.1.15,2013-09-18 08:55:00,
2013-09-18 05:00:00,51.2,49.8,30.30,NE,37,0.0,0.0,95,0.00,,,0.00,Wunderground v.1.15,2013-09-18 09:00:00,
2013-09-18 05:10:00,51.0,49.6,30.29,NE,37,0.0,0.0,95,0.00,,,0.00,Wunderground v.1.15,2013-09-18 09:10:00,
2013-09-18 05:15:00,50.9,49.5,30.29,NE,37,0.0,0.0,95,0.00,,,0.00,Wunderground v.1.15,2013-09-18 09:15:00,
2013-09-18 05:20:00,50.8,49.4,30.30,NE,37,0.0,0.0,95,0.00,,,0.00,Wunderground v.1.15,2013-09-18 09:20:00,
2013-09-18 05:25:00,50.8,49.4,30.30,NE,37,0.0,0.0,95,0.00,,,0.00,Wunderground v.1.15,2013-09-18 09:25:00,
2013-09-18 05:30:00,51.0,49.9,30.30,NE,37,0.0,0.0,96,0.00,,,0.00,Wunderground v.1.15,2013-09-18 09:30:00,
2013-09-18 05:35:00,51.0,49.6,30.30,NE,37,0.0,0.0,95,0.00,,,0.00,Wunderground v.1.15,2013-09-18 09:35:00,
2013-09-18 05:40:00,50.9,49.5,30.30,NE,37,0.0,0.0,95,0.00,,,0.00,Wunderground v.1.15,2013-09-18 09:40:00,
2013-09-18 05:45:00,50.7,49.3,30.30,NE,37,0.0,0.0,95,0.00,,,0.00,Wunderground v.1.15,2013-09-18 09:45:00,
2013-09-18 05:55:00,50.5,49.1,30.30,NE,37,0.0,0.0,95,0.00,,,0.00,Wunderground v.1.15,2013-09-18 09:55:00,
2013-09-18 06:00:00,50.6,49.2,30.30,NE,37,0.0,0.0,95,0.00,,,0.00,Wunderground v.1.15,2013-09-18 10:00:00,
2013-09-18 06:10:00,50.6,49.2,30.30,NE,37,0.0,0.0,95,0.00,,,0.00,Wunderground v.1.15,2013-09-18 10:10:00,
2013-09-18 06:15:00,50.6,49.2,30.30,NE,37,0.0,0.0,95,0.00,,,0.00,Wunderground v.1.15,2013-09-18 10:15:00,
2013-09-18 06:20:00,50.5,49.1,30.30,NE,37,0.0,0.0,95,0.00,,,0.00,Wunderground v.1.15,2013-09-18 10:20:00,
2013-09-18 06:30:00,50.4,49.3,30.30,NE,37,0.0,0.0,96,0.00,,,0.00,Wunderground v.1.15,2013-09-18 10:30:00,
2013-09-18 06:35:00,50.5,49.4,30.31,NE,37,0.0,0.0,96,0.00,,,0.00,Wunderground v.1.15,2013-09-18 10:35:00,
2013-09-18 06:40:00,50.5,49.4,30.30,NE,37,0.0,0.0,96,0.00,,,0.00,Wunderground v.1.15,2013-09-18 10:40:00,
2013-09-18 06:45:00,50.5,49.4,30.31,NE,37,0.0,0.0,96,0.00,,,0.00,Wunderground v.1.15,2013-09-18 10:45:00,
2013-09-18 06:50:00,50.5,49.1,30.31,NE,37,0.0,0.0,95,0.00,,,0.00,Wunderground v.1.15,2013-09-18 10:50:00,
2013-09-18 06:55:00,50.5,49.4,30.31,NE,37,0.0,0.0,96,0.00,,,0.00,Wunderground v.1.15,2013-09-18 10:55:00,
2013-09-18 07:00:00,50.4,49.3,30.31,NE,37,0.0,0.0,96,0.00,,,0.00,Wunderground v.1.15,2013-09-18 11:00:00,
2013-09-18 07:10:00,50.4,49.3,30.31,NE,37,0.0,0.0,96,0.00,,,0.00,Wunderground v.1.15,2013-09-18 11:10:00,
2013-09-18 07:15:00,50.4,49.3,30.32,NE,37,0.0,0.0,96,0.00,,,0.00,Wunderground v.1.15,2013-09-18 11:15:00,
2013-09-18 07:20:00,50.5,49.4,30.31,NE,37,0.0,0.0,96,0.00,,,0.00,Wunderground v.1.15,2013-09-18 11:20:00,
2013-09-18 07:25:00,50.6,49.5,30.32,NE,37,0.0,0.0,96,0.00,,,0.00,Wunderground v.1.15,2013-09-18 11:25:00,
2013-09-18 07:30:00,50.6,49.5,30.32,NE,37,0.0,0.0,96,0.00,,,0.00,Wunderground v.1.15,2013-09-18 11:30:00,
2013-09-18 07:35:00,50.8,49.7,30.32,NE,36,0.0,0.0,96,0.00,,,0.00,Wunderground v.1.15,2013-09-18 11:35:00,
2013-09-18 07:40:00,50.9,49.8,30.32,NE,36,0.0,0.0,96,0.00,,,0.00,Wunderground v.1.15,2013-09-18 11:40:00,
2013-09-18 07:45:00,51.0,49.9,30.32,NE,36,0.0,0.0,96,0.00,,,0.00,Wunderground v.1.15,2013-09-18 11:45:00,
2013-09-18 07:55:00,51.5,50.4,30.32,NNE,31,0.0,0.0,96,0.00,,,0.00,Wunderground v.1.15,2013-09-18 11:55:00,
2013-09-18 08:00:00,51.9,50.8,30.32,NNE,12,0.0,0.0,96,0.00,,,0.00,Wunderground v.1.15,2013-09-18 12:00:00,
2013-09-18 08:10:00,52.4,51.3,30.32,NNE,12,0.0,0.0,96,0.00,,,0.00,Wunderground v.1.15,2013-09-18 12:10:00,
2013-09-18 08:15:00,52.8,51.7,30.33,North,9,0.0,0.0,96,0.00,,,0.00,Wunderground v.1.15,2013-09-18 12:15:00,
2013-09-18 08:20:00,53.3,51.9,30.33,North,10,0.0,0.0,95,0.00,,,0.00,Wunderground v.1.15,2013-09-18 12:20:00,
2013-09-18 08:30:00,54.6,52.9,30.32,North,9,0.0,0.0,94,0.00,,,0.00,Wunderground v.1.15,2013-09-18 12:30:00,
2013-09-18 08:35:00,55.1,52.8,30.32,NNE,12,0.0,0.0,92,0.00,,,0.00,Wunderground v.1.15,2013-09-18 12:35:00,
2013-09-18 08:40:00,55.9,53.3,30.32,NNE,25,0.0,0.0,91,0.00,,,0.00,Wunderground v.1.15,2013-09-18 12:40:00,
2013-09-18 08:45:00,56.4,53.5,30.32,NE,48,0.0,0.0,90,0.00,,,0.00,Wunderground v.1.15,2013-09-18 12:45:00,
2013-09-18 08:50:00,56.9,53.1,30.32,North,355,0.0,0.0,87,0.00,,,0.00,Wunderground v.1.15,2013-09-18 12:50:00,
2013-09-18 08:55:00,57.4,53.2,30.33,ENE,69,0.0,0.0,86,0.00,,,0.00,Wunderground v.1.15,2013-09-18 12:55:00,
2013-09-18 09:00:00,57.8,53.3,30.33,West,269,1.0,1.0,85,0.00,,,0.00,Wunderground v.1.15,2013-09-18 13:00:00,
2013-09-18 09:10:00,58.7,53.5,30.33,ENE,70,0.0,5.0,83,0.00,,,0.00,Wunderground v.1.15,2013-09-18 13:10:00,
2013-09-18 09:15:00,58.7,53.2,30.33,ENE,63,0.0,5.0,82,0.00,,,0.00,Wunderground v.1.15,2013-09-18 13:15:00,
2013-09-18 09:20:00,59.3,53.8,30.33,ENE,67,0.0,2.0,82,0.00,,,0.00,Wunderground v.1.15,2013-09-18 13:20:00,
2013-09-18 09:25:00,59.4,53.6,30.33,ENE,67,1.0,2.0,81,0.00,,,0.00,Wunderground v.1.15,2013-09-18 13:25:00,
2013-09-18 09:30:00,60.1,53.9,30.33,ENE,64,0.0,1.0,80,0.00,,,0.00,Wunderground v.1.15,2013-09-18 13:30:00,
2013-09-18 09:40:00,61.1,54.5,30.33,NE,46,1.0,1.0,79,0.00,,,0.00,Wunderground v.1.15,2013-09-18 13:40:00,
2013-09-18 09:45:00,61.8,55.2,30.33,NNW,338,0.0,1.0,79,0.00,,,0.00,Wunderground v.1.15,2013-09-18 13:45:00,
2013-09-18 09:50:00,61.8,54.5,30.33,NNW,343,0.0,0.0,77,0.00,,,0.00,Wunderground v.1.15,2013-09-18 13:50:00,
2013-09-18 09:55:00,62.2,54.5,30.33,North,351,0.0,0.0,76,0.00,,,0.00,Wunderground v.1.15,2013-09-18 13:55:00,
2013-09-18 10:00:00,62.4,54.4,30.33,North,360,0.0,0.0,75,0.00,,,0.00,Wunderground v.1.15,2013-09-18 14:00:00,
2013-09-18 10:15:00,63.6,55.2,30.33,ENE,68,1.0,3.0,74,0.00,,,0.00,Wunderground v.1.15,2013-09-18 14:15:00,
2013-09-18 10:20:00,63.4,55.0,30.33,NW,321,2.0,2.0,74,0.00,,,0.00,Wunderground v.1.15,2013-09-18 14:20:00,
2013-09-18 10:25:00,63.9,55.1,30.33,NW,324,2.0,2.0,73,0.00,,,0.00,Wunderground v.1.15,2013-09-18 14:25:00,
2013-09-18 10:30:00,64.2,56.1,30.33,SSW,196,1.0,2.0,75,0.00,,,0.00,Wunderground v.1.15,2013-09-18 14:30:00,
2013-09-18 10:40:00,64.8,55.9,30.33,North,360,1.0,1.0,73,0.00,,,0.00,Wunderground v.1.15,2013-09-18 14:40:00,
2013-09-18 10:45:00,65.4,56.9,30.33,NW,321,1.0,1.0,74,0.00,,,0.00,Wunderground v.1.15,2013-09-18 14:45:00,
2013-09-18 10:50:00,65.8,56.5,30.33,NE,49,1.0,1.0,72,0.00,,,0.00,Wunderground v.1.15,2013-09-18 14:50:00,
2013-09-18 11:00:00,66.1,56.0,30.33,East,80,1.0,1.0,70,0.00,,,0.00,Wunderground v.1.15,2013-09-18 15:00:00,
2013-09-18 11:10:00,66.0,56.3,30.33,NE,46,2.0,2.0,71,0.00,,,0.00,Wunderground v.1.15,2013-09-18 15:10:00,
2013-09-18 11:20:00,65.8,56.1,30.33,NW,313,1.0,1.0,71,0.00,,,0.00,Wunderground v.1.15,2013-09-18 15:20:00,
2013-09-18 11:30:00,66.4,55.9,30.32,NNW,329,1.0,1.0,69,0.00,,,0.00,Wunderground v.1.15,2013-09-18 15:30:00,
2013-09-18 11:35:00,68.1,57.1,30.32,NNE,32,1.0,4.0,68,0.00,,,0.00,Wunderground v.1.15,2013-09-18 15:35:00,
2013-09-18 11:45:00,68.4,56.6,30.32,West,271,2.0,6.0,66,0.00,,,0.00,Wunderground v.1.15,2013-09-18 15:45:00,
2013-09-18 11:50:00,68.0,55.4,30.32,ENE,71,2.0,4.0,64,0.00,,,0.00,Wunderground v.1.15,2013-09-18 15:50:00,
2013-09-18 11:55:00,67.2,55.5,30.31,NW,306,2.0,4.0,66,0.00,,,0.00,Wunderground v.1.15,2013-09-18 15:55:00,
2013-09-18 12:00:00,67.7,55.9,30.31,WNW,284,1.0,11.0,66,0.00,,,0.00,Wunderground v.1.15,2013-09-18 16:00:00,
2013-09-18 12:10:00,68.0,54.9,30.31,East,96,2.0,2.0,63,0.00,,,0.00,Wunderground v.1.15,2013-09-18 16:10:00,
2013-09-18 12:15:00,67.8,55.6,30.31,ENE,65,0.0,3.0,65,0.00,,,0.00,Wunderground v.1.15,2013-09-18 16:15:00,
2013-09-18 12:20:00,68.3,55.2,30.31,NE,55,1.0,1.0,63,0.00,,,0.00,Wunderground v.1.15,2013-09-18 16:20:00,
2013-09-18 12:30:00,68.1,54.6,30.30,NNW,344,2.0,2.0,62,0.00,,,0.00,Wunderground v.1.15,2013-09-18 16:30:00,
2013-09-18 12:35:00,67.9,55.7,30.30,NNW,344,1.0,2.0,65,0.00,,,0.00,Wunderground v.1.15,2013-09-18 16:35:00,
2013-09-18 12:40:00,67.8,55.2,30.30,NNW,347,0.0,0.0,64,0.00,,,0.00,Wunderground v.1.15,2013-09-18 16:40:00,
2013-09-18 12:45:00,68.8,55.2,30.29,North,350,0.0,2.0,62,0.00,,,0.00,Wunderground v.1.15,2013-09-18 16:45:00,
2013-09-18 12:55:00,69.2,54.7,30.29,NNE,32,1.0,3.0,60,0.00,,,0.00,Wunderground v.1.15,2013-09-18 16:55:00,
2013-09-18 13:05:00,70.3,56.2,30.28,NE,46,1.0,1.0,61,0.00,,,0.00,Wunderground v.1.15,2013-09-18 17:05:00,
2013-09-18 13:10:00,69.9,54.9,30.28,North,5,1.0,1.0,59,0.00,,,0.00,Wunderground v.1.15,2013-09-18 17:10:00,
2013-09-18 13:15:00,70.3,55.8,30.28,NNW,333,1.0,6.0,60,0.00,,,0.00,Wunderground v.1.15,2013-09-18 17:15:00,
2013-09-18 13:20:00,70.6,54.1,30.28,ENE,75,2.0,2.0,56,0.00,,,0.00,Wunderground v.1.15,2013-09-18 17:20:00,
2013-09-18 13:30:00,70.1,54.2,30.27,NNE,20,1.0,1.0,57,0.00,,,0.00,Wunderground v.1.15,2013-09-18 17:30:00,
2013-09-18 13:35:00,69.7,53.3,30.27,NE,35,1.0,1.0,56,0.00,,,0.00,Wunderground v.1.15,2013-09-18 17:35:00,
2013-09-18 13:40:00,69.4,54.0,30.27,NE,36,1.0,1.0,58,0.00,,,0.00,Wunderground v.1.15,2013-09-18 17:40:00,
2013-09-18 13:45:00,70.1,54.6,30.27,NE,36,0.0,1.0,58,0.00,,,0.00,Wunderground v.1.15,2013-09-18 17:45:00,
2013-09-18 13:50:00,70.4,55.4,30.26,NE,52,1.0,1.0,59,0.00,,,0.00,Wunderground v.1.15,2013-09-18 17:50:00,
2013-09-18 13:55:00,71.1,55.1,30.26,NE,53,1.0,1.0,57,0.00,,,0.00,Wunderground v.1.15,2013-09-18 17:55:00,
2013-09-18 14:05:00,71.6,55.6,30.26,NW,314,1.0,4.0,57,0.00,,,0.00,Wunderground v.1.15,2013-09-18 18:05:00,
2013-09-18 14:10:00,71.2,54.7,30.26,NW,316,1.0,1.0,56,0.00,,,0.00,Wunderground v.1.15,2013-09-18 18:10:00,
2013-09-18 14:15:00,71.0,54.0,30.25,NE,52,1.0,1.0,55,0.00,,,0.00,Wunderground v.1.15,2013-09-18 18:15:00,
2013-09-18 14:25:00,71.2,54.7,30.25,NE,44,1.0,1.0,56,0.00,,,0.00,Wunderground v.1.15,2013-09-18 18:25:00,
2013-09-18 14:35:00,71.8,55.7,30.25,NE,44,0.0,0.0,57,0.00,,,0.00,Wunderground v.1.15,2013-09-18 18:35:00,
2013-09-18 14:40:00,72.1,56.0,30.25,NE,44,0.0,0.0,57,0.00,,,0.00,Wunderground v.1.15,2013-09-18 18:40:00,
2013-09-18 14:45:00,71.5,53.5,30.25,NE,44,0.0,0.0,53,0.00,,,0.00,Wunderground v.1.15,2013-09-18 18:45:00,
2013-09-18 14:55:00,71.1,53.6,30.25,NNW,332,1.0,1.0,54,0.00,,,0.00,Wunderground v.1.15,2013-09-18 18:55:00,
2013-09-18 15:00:00,71.7,53.7,30.24,NNW,330,1.0,1.0,53,0.00,,,0.00,Wunderground v.1.15,2013-09-18 19:00:00,
2013-09-18 15:10:00,71.0,53.0,30.24,ENE,75,2.0,2.0,53,0.00,,,0.00,Wunderground v.1.15,2013-09-18 19:10:00,
2013-09-18 15:15:00,70.6,52.6,30.24,NNW,335,1.0,2.0,53,0.00,,,0.00,Wunderground v.1.15,2013-09-18 19:15:00,
2013-09-18 15:20:00,70.7,55.7,30.24,NNW,335,0.0,0.0,59,0.00,,,0.00,Wunderground v.1.15,2013-09-18 19:20:00,
2013-09-18 15:30:00,71.2,55.7,30.23,NNW,336,0.0,0.0,58,0.00,,,0.00,Wunderground v.1.15,2013-09-18 19:30:00,
2013-09-18 15:35:00,71.6,53.6,30.24,NNW,336,0.0,0.0,53,0.00,,,0.00,Wunderground v.1.15,2013-09-18 19:35:00,
2013-09-18 15:40:00,71.7,53.7,30.23,NNW,336,0.0,0.0,53,0.00,,,0.00,Wunderground v.1.15,2013-09-18 19:40:00,
2013-09-18 15:45:00,72.0,54.4,30.23,NNW,340,0.0,4.0,54,0.00,,,0.00,Wunderground v.1.15,2013-09-18 19:45:00,
2013-09-18 15:55:00,71.9,54.3,30.23,NNW,346,1.0,1.0,54,0.00,,,0.00,Wunderground v.1.15,2013-09-18 19:55:00,
2013-09-18 16:00:00,71.4,53.9,30.23,North,355,0.0,0.0,54,0.00,,,0.00,Wunderground v.1.15,2013-09-18 20:00:00,
2013-09-18 16:10:00,70.9,54.9,30.23,North,355,0.0,0.0,57,0.00,,,0.00,Wunderground v.1.15,2013-09-18 20:10:00,
2013-09-18 16:15:00,71.1,54.1,30.23,North,355,0.0,0.0,55,0.00,,,0.00,Wunderground v.1.15,2013-09-18 20:15:00,
2013-09-18 16:25:00,71.6,53.6,30.22,North,355,0.0,0.0,53,0.00,,,0.00,Wunderground v.1.15,2013-09-18 20:25:00,
2013-09-18 16:35:00,71.2,52.7,30.22,North,355,0.0,0.0,52,0.00,,,0.00,Wunderground v.1.15,2013-09-18 20:35:00,
2013-09-18 16:40:00,71.4,54.4,30.22,North,355,0.0,0.0,55,0.00,,,0.00,Wunderground v.1.15,2013-09-18 20:40:00,
2013-09-18 19:35:00,63.0,56.7,30.21,North,350,0.0,0.0,80,0.00,,,0.00,Wunderground v.1.15,2013-09-18 23:35:00,
2013-09-18 19:40:00,62.6,56.3,30.21,North,350,0.0,0.0,80,0.00,,,0.00,Wunderground v.1.15,2013-09-18 23:40:00,
2013-09-18 19:45:00,62.3,56.0,30.21,North,350,0.0,0.0,80,0.00,,,0.00,Wunderground v.1.15,2013-09-18 23:45:00,
2013-09-18 19:55:00,61.7,55.5,30.21,North,350,0.0,0.0,80,0.00,,,0.00,Wunderground v.1.15,2013-09-18 23:55:00,
2013-09-18 20:00:00,61.5,55.3,30.21,North,350,0.0,0.0,80,0.00,,,0.00,Wunderground v.1.15,2013-09-19 00:00:00,
2013-09-18 20:10:00,61.0,55.1,30.21,North,350,0.0,0.0,81,0.00,,,0.00,Wunderground v.1.15,2013-09-19 00:10:00,
2013-09-18 20:15:00,60.7,54.8,30.21,North,350,0.0,0.0,81,0.00,,,0.00,Wunderground v.1.15,2013-09-19 00:15:00,
2013-09-18 20:20:00,60.4,55.2,30.21,North,350,0.0,0.0,83,0.00,,,0.00,Wunderground v.1.15,2013-09-19 00:20:00,
2013-09-18 20:25:00,60.2,55.0,30.21,North,350,0.0,0.0,83,0.00,,,0.00,Wunderground v.1.15,2013-09-19 00:25:00,
2013-09-18 20:30:00,60.0,54.5,30.21,North,350,0.0,0.0,82,0.00,,,0.00,Wunderground v.1.15,2013-09-19 00:30:00,
2013-09-18 20:40:00,59.5,54.0,30.22,North,350,0.0,0.0,82,0.00,,,0.00,Wunderground v.1.15,2013-09-19 00:40:00,
2013-09-18 20:45:00,59.3,53.8,30.22,North,350,0.0,0.0,82,0.00,,,0.00,Wunderground v.1.15,2013-09-19 00:45:00,
2013-09-18 20:50:00,59.4,54.2,30.22,North,350,0.0,0.0,83,0.00,,,0.00,Wunderground v.1.15,2013-09-19 00:50:00,
2013-09-18 21:00:00,59.2,54.7,30.23,North,350,0.0,0.0,85,0.00,,,0.00,Wunderground v.1.15,2013-09-19 01:00:00,
2013-09-18 21:10:00,59.2,54.7,30.23,North,350,0.0,0.0,85,0.00,,,0.00,Wunderground v.1.15,2013-09-19 01:10:00,
2013-09-18 21:20:00,58.9,55.0,30.23,North,350,0.0,0.0,87,0.00,,,0.00,Wunderground v.1.15,2013-09-19 01:20:00,
2013-09-18 21:25:00,58.7,54.8,30.23,North,350,0.0,0.0,87,0.00,,,0.00,Wunderground v.1.15,2013-09-19 01:25:00,
2013-09-18 21:30:00,58.6,55.1,30.23,North,350,0.0,0.0,88,0.00,,,0.00,Wunderground v.1.15,2013-09-19 01:30:00,
2013-09-18 21:35:00,58.4,54.5,30.23,North,350,0.0,0.0,87,0.00,,,0.00,Wunderground v.1.15,2013-09-19 01:35:00,
2013-09-18 21:40:00,58.0,54.2,30.23,North,350,0.0,0.0,87,0.00,,,0.00,Wunderground v.1.15,2013-09-19 01:40:00,
2013-09-18 21:50:00,57.7,54.2,30.23,North,350,0.0,0.0,88,0.00,,,0.00,Wunderground v.1.15,2013-09-19 01:50:00,
2013-09-18 21:55:00,57.5,53.7,30.23,North,350,0.0,0.0,87,0.00,,,0.00,Wunderground v.1.15,2013-09-19 01:55:00,
2013-09-18 22:00:00,57.4,53.9,30.23,North,350,0.0,0.0,88,0.00,,,0.00,Wunderground v.1.15,2013-09-19 02:00:00,
2013-09-18 22:10:00,57.5,54.0,30.23,North,350,0.0,0.0,88,0.00,,,0.00,Wunderground v.1.15,2013-09-19 02:10:00,
2013-09-18 22:20:00,57.4,53.6,30.23,North,350,0.0,0.0,87,0.00,,,0.00,Wunderground v.1.15,2013-09-19 02:20:00,
2013-09-18 22:30:00,56.7,52.9,30.23,North,350,0.0,0.0,87,0.00,,,0.00,Wunderground v.1.15,2013-09-19 02:30:00,
2013-09-18 22:35:00,56.3,52.8,30.23,North,350,0.0,0.0,88,0.00,,,0.00,Wunderground v.1.15,2013-09-19 02:35:00,
2013-09-18 22:40:00,56.1,52.9,30.23,North,350,0.0,0.0,89,0.00,,,0.00,Wunderground v.1.15,2013-09-19 02:40:00,
2013-09-18 22:45:00,55.9,52.7,30.23,North,350,0.0,0.0,89,0.00,,,0.00,Wunderground v.1.15,2013-09-19 02:45:00,
2013-09-18 22:55:00,55.8,52.9,30.23,North,350,0.0,0.0,90,0.00,,,0.00,Wunderground v.1.15,2013-09-19 02:55:00,
2013-09-18 23:00:00,55.8,52.9,30.23,North,350,0.0,0.0,90,0.00,,,0.00,Wunderground v.1.15,2013-09-19 03:00:00,
2013-09-18 23:10:00,55.9,52.7,30.23,North,350,0.0,0.0,89,0.00,,,0.00,Wunderground v.1.15,2013-09-19 03:10:00,
2013-09-18 23:20:00,55.7,52.5,30.22,North,350,0.0,0.0,89,0.00,,,0.00,Wunderground v.1.15,2013-09-19 03:20:00,
2013-09-18 23:25:00,55.8,52.9,30.22,North,350,0.0,0.0,90,0.00,,,0.00,Wunderground v.1.15,2013-09-19 03:25:00,
2013-09-18 23:30:00,56.0,53.4,30.22,North,350,0.0,0.0,91,0.00,,,0.00,Wunderground v.1.15,2013-09-19 03:30:00,
2013-09-18 23:40:00,56.1,53.5,30.22,North,350,0.0,0.0,91,0.00,,,0.00,Wunderground v.1.15,2013-09-19 03:40:00,
2013-09-18 23:45:00,56.2,53.6,30.22,North,350,0.0,0.0,91,0.00,,,0.00,Wunderground v.1.15,2013-09-19 03:45:00,
2013-09-18 23:50:00,56.1,53.5,30.22,North,350,0.0,0.0,91,0.00,,,0.00,Wunderground v.1.15,2013-09-19 03:50:00,